Location: *
(48.7358°N, 0.3111°E)
Time: 10:15:27
(UTC+00:00)

Cosmos 2228 - Pass Details

Date: 22 October 2019
Orbit: 588 x 620 km, 82.5° (Epoch: 12 November)

Event Time Altitude Azimuth Distance (km) Brightness Sun altitude
Rises 05:18:02 0° 339° (NNW) 2,844 6.2 -12.4°
Reaches altitude 10° 05:20:35 10° 325° (NW) 1,933 5.2 -11.9°
Maximum altitude 05:23:57 23° 272° (W) 1,266 4.0 -11.4°
Drops below altitude 10° 05:27:18 10° 220° (SW) 1,913 5.2 -10.8°
Sets 05:29:48 0° 206° (SSW) 2,807 6.2 -10.4°
